Location: Township of Marena
(38.1747°N, 99.6798°W)
Time: 03:42:57
(UTC+00:00)

Cosmos 2344 - Pass Details

Date: 26 October 2020
Orbit: 1246 x 2997 km, 63.3° (Epoch: 24 November)

Event Time Altitude Azimuth Distance (km) Brightness Sun altitude
Exits shadow 09:26:58 42° 45° (NE) 1,713 4.4 -41.9°
Drops below altitude 10° 09:31:48 10° 36° (NE) 3,337 6.2 -41.0°
Sets 09:34:44 0° 35° (NE) 4,420 7.0 -40.4°
